Regional Weather Roundup
Issued by NWS

Home | Current Version | Previous Version | Graphics & Text | Print | Product List | Glossary On
Versions: 1 2 3 4 5 6 7 8 9 10 11 12 13 14 15 16 17 18 19 20 21 22 23 24 25 26 27
000
ASUS45 KBOI 210910
RWRID

IDAHO REGIONAL WEATHER ROUNDUP
NATIONAL WEATHER SERVICE BOISE ID
300 AM MDT THU SEP 21 2017

NOTE: "FAIR" INDICATES FEW OR NO CLOUDS BELOW 12000 FEET
WITH NO SIGNIFICANT WEATHER AND/OR OBSTRUCTIONS TO VISIBILITY

IDZ012-014-211000-
SOUTHWEST IDAHO


CITY           SKY/WX    TMP DP  RH WIND       PRES   REMARKS
BOISE          LGT RAIN  47  44  90 N6        29.78R FOG
CALDWELL       CLOUDY    49  46  90 CALM      29.78
MOUNTAIN HOME  DRIZZLE   49  45  86 SE10      29.76S
$$

IDZ016-017-211000-
SOUTHCENTRAL IDAHO


CITY           SKY/WX    TMP DP  RH WIND       PRES   REMARKS
BURLEY         LGT RAIN  44  43  96 W6        29.77S
JEROME         LGT RAIN  44  44 100 W5        29.78F
TWIN FALLS     LGT RAIN  43  43 100 W5        29.78F
$$

IDZ019>023-211000-
SOUTHEAST IDAHO


CITY           SKY/WX    TMP DP  RH WIND       PRES   REMARKS
IDAHO FALLS    LGT RAIN  44  43  96 S6        29.78R
POCATELLO      LGT RAIN  45  43  93 S8        29.78S
REXBURG        LGT RAIN  43  42  97 S8        29.76S
$$

IDZ006-010-011-018-031-032-211000-
CENTRAL IDAHO MOUNTAINS


CITY           SKY/WX    TMP DP  RH WIND       PRES   REMARKS
MCCALL         CLOUDY    35  34  96 CALM      29.76R
HAILEY         CLOUDY    41  41 100 SE3       29.78R
STANLEY          N/A     34  33  96 CALM      29.78S
SALMON         CLOUDY    37  36  96 CALM      29.79S
CHALLIS        CLOUDY    39  33  79 N5        29.75S
$$

IDZ002-004-006-007-026-211000-
NORTHERN IDAHO


CITY           SKY/WX    TMP DP  RH WIND       PRES   REMARKS
LEWISTON       PTCLDY    45  42  89 CALM      29.79R
LOWELL           N/A     46  43  89 CALM      29.82R
COEUR D`ALENE  CLOUDY    42  41  96 CALM      29.78R
MULLAN PASS    CLOUDY    30  28  92 VRB3      29.72S FOG
$$




USA.gov is the U.S. government's official web portal to all federal, state and local government web resources and services.